Location: Axtheid
(49.6213°N, 11.8205°E)
Time: 08:20:22
(UTC+00:00)

CSL-04 Rocket - Visible Passes

Search period start: 11 May 2021 00:00
Search period end: 21 May 2021 00:00
Orbit: 806 x 860 km, 98.9° (Epoch: 10 May)

Date Brightness Start Highest point End Pass type
(mag) Time Alt. Az. Time Alt. Az. Time Alt. Az.
13 May 6.3 20:08:46 10° WSW 20:11:14 13° W 20:13:45 10° WNW visible
14 May 6.1 19:50:23 10° SW 19:54:01 18° W 19:57:42 10° NW visible
15 May 5.8 19:32:30 10° SSW 19:36:51 25° W 19:41:16 10° NW visible
19 May 6.3 20:07:05 10° WSW 20:09:48 14° W 20:12:32 10° NW visible
20 May 6.1 19:48:49 10° SW 19:52:35 19° W 19:56:25 10° NW visible
